TNO5555 BIRK-EKVG

Flight info

Callsign TNO5555
Flight time N/A
Altitude 37000
Route LUTER DCT MOXAL DCT MAGNI
Aircraft A20N/M-SDE2E3FGHIRWXY/LB1

Departure

Time 2026-05-09 01:34
Airport Reykjavík Domestic Airport (BIRK)

Arrival

Time N/A
Airport Vágar Airport (EKVG)
Time Latitude Longitude Altitude Speed Heading
2026-05-09 01:28 64.13163 -21.94134 45 ft 7 kts 90°
2026-05-09 01:29 64.13156 -21.93973 50 ft 10 kts 90°
2026-05-09 01:29 64.13127 -21.93740 51 ft 19 kts 120°
2026-05-09 01:29 64.13042 -21.93565 50 ft 14 kts 170°
2026-05-09 01:29 64.12954 -21.93545 48 ft 10 kts 172°
2026-05-09 01:30 64.12901 -21.93513 54 ft 6 kts 165°
2026-05-09 01:30 64.12850 -21.93500 53 ft 15 kts 178°
2026-05-09 01:30 64.12760 -21.93481 52 ft 12 kts 174°
2026-05-09 01:30 64.12676 -21.93462 55 ft 12 kts 174°
2026-05-09 01:31 64.12598 -21.93446 55 ft 11 kts 174°
2026-05-09 01:31 64.12527 -21.93431 51 ft 10 kts 175°
2026-05-09 01:31 64.12457 -21.93422 54 ft 10 kts 180°
2026-05-09 01:31 64.12397 -21.93418 57 ft 8 kts 177°
2026-05-09 01:32 64.12347 -21.93409 56 ft 7 kts 172°
2026-05-09 01:32 64.12299 -21.93394 54 ft 6 kts 172°
2026-05-09 01:32 64.12254 -21.93388 54 ft 9 kts 186°
2026-05-09 01:32 64.12186 -21.93423 55 ft 11 kts 197°
2026-05-09 01:33 64.12129 -21.93508 58 ft 9 kts 223°
2026-05-09 01:33 64.12128 -21.93603 52 ft 4 kts 338°
2026-05-09 01:33 64.12160 -21.93616 57 ft 5 kts 351°
2026-05-09 01:33 64.12301 -21.93656 57 ft 51 kts 355°
2026-05-09 01:34 64.12899 -21.93766 54 ft 122 kts 355°
2026-05-09 01:34 64.13840 -21.93974 515 ft 136 kts 351°
2026-05-09 01:34 64.14813 -21.94316 1105 ft 152 kts 345°
2026-05-09 01:34 64.15936 -21.94720 1497 ft 178 kts 351°
2026-05-09 01:35 64.17338 -21.94647 1433 ft 226 kts
2026-05-09 01:35 64.18864 -21.93343 2015 ft 243 kts 28°
2026-05-09 01:35 64.20087 -21.90564 2738 ft 256 kts 56°
2026-05-09 01:35 64.20597 -21.86599 3468 ft 268 kts 88°
2026-05-09 01:36 64.20168 -21.82425 4209 ft 273 kts 111°
2026-05-09 01:36 64.19295 -21.78495 4907 ft 279 kts 121°
2026-05-09 01:36 64.18210 -21.74741 5644 ft 285 kts 126°
2026-05-09 01:36 64.17062 -21.70986 6410 ft 291 kts 120°
2026-05-09 01:37 64.16347 -21.66629 7172 ft 294 kts 103°
2026-05-09 01:37 64.15933 -21.62033 7979 ft 296 kts 96°
2026-05-09 01:37 64.15700 -21.57375 8773 ft 299 kts 91°
2026-05-09 01:37 64.15563 -21.52601 9607 ft 302 kts 89°
2026-05-09 01:38 64.15463 -21.47752 10390 ft 306 kts 88°
2026-05-09 01:38 64.15367 -21.42769 10843 ft 322 kts 89°
2026-05-09 01:38 64.15253 -21.37473 11153 ft 343 kts 89°
2026-05-09 01:38 64.15113 -21.31865 11515 ft 362 kts 90°
2026-05-09 01:39 64.14944 -21.26027 12117 ft 371 kts 90°
2026-05-09 01:39 64.14757 -21.20090 12863 ft 376 kts 90°
2026-05-09 01:39 64.14558 -21.14065 13635 ft 381 kts 90°
2026-05-09 01:39 64.14356 -21.08062 14360 ft 385 kts 90°
2026-05-09 01:40 64.14148 -21.01909 15022 ft 390 kts 90°
2026-05-09 01:40 64.13936 -20.95684 15685 ft 394 kts 90°
2026-05-09 01:40 64.13721 -20.89392 16326 ft 399 kts 90°
2026-05-09 01:40 64.13503 -20.83036 16946 ft 403 kts 90°
2026-05-09 01:41 64.13280 -20.76600 17574 ft 407 kts 90°
2026-05-09 01:41 64.13052 -20.70118 18215 ft 410 kts 90°
2026-05-09 01:41 64.12820 -20.63585 18816 ft 414 kts 90°
2026-05-09 01:41 64.12585 -20.57070 19355 ft 418 kts 90°
2026-05-09 01:42 64.12342 -20.50423 19908 ft 421 kts 90°
2026-05-09 01:42 64.12095 -20.43719 20461 ft 425 kts 90°
2026-05-09 01:42 64.11783 -20.36961 20996 ft 431 kts 96°
2026-05-09 01:42 64.11153 -20.30209 21536 ft 436 kts 98°
2026-05-09 01:43 64.10456 -20.23436 22067 ft 439 kts 99°
2026-05-09 01:43 64.09733 -20.16623 22571 ft 443 kts 99°
2026-05-09 01:43 64.08996 -20.09758 23064 ft 446 kts 99°
2026-05-09 01:43 64.08250 -20.02844 23601 ft 449 kts 99°
2026-05-09 01:44 64.07506 -19.95979 24046 ft 452 kts 99°
2026-05-09 01:44 64.06744 -19.88986 24412 ft 456 kts 99°
2026-05-09 01:44 64.05973 -19.81931 24753 ft 459 kts 98°
2026-05-09 01:44 64.05192 -19.74828 25106 ft 463 kts 98°
2026-05-09 01:45 64.04403 -19.67684 25447 ft 466 kts 98°
2026-05-09 01:45 64.03602 -19.60472 25805 ft 470 kts 98°
2026-05-09 01:45 64.02794 -19.53232 26156 ft 473 kts 98°
2026-05-09 01:45 64.01975 -19.45932 26473 ft 476 kts 98°
2026-05-09 01:46 64.01159 -19.38692 26807 ft 480 kts 98°
2026-05-09 01:46 64.00322 -19.31313 27144 ft 482 kts 98°
2026-05-09 01:46 63.99477 -19.23897 27515 ft 484 kts 98°
2026-05-09 01:46 63.98625 -19.16456 27820 ft 488 kts 97°
2026-05-09 01:47 63.97764 -19.08964 28222 ft 489 kts 98°
2026-05-09 01:47 63.96896 -19.01473 28602 ft 490 kts 98°
2026-05-09 01:47 63.96020 -18.93938 28865 ft 494 kts 98°
2026-05-09 01:47 63.95138 -18.86380 29221 ft 495 kts 98°
2026-05-09 01:48 63.94249 -18.78818 29657 ft 494 kts 98°
2026-05-09 01:48 63.93370 -18.71382 30042 ft 494 kts 98°
2026-05-09 01:48 63.92476 -18.63850 30427 ft 494 kts 98°
2026-05-09 01:48 63.91576 -18.56305 30743 ft 494 kts 98°
2026-05-09 01:49 63.90673 -18.48774 31055 ft 494 kts 98°
2026-05-09 01:49 63.89769 -18.41268 31383 ft 493 kts 98°
2026-05-09 01:49 63.88861 -18.33766 31700 ft 493 kts 99°
2026-05-09 01:49 63.87950 -18.26269 32011 ft 492 kts 99°
2026-05-09 01:50 63.87035 -18.18779 32373 ft 492 kts 99°
2026-05-09 01:50 63.86121 -18.11350 32827 ft 487 kts 99°
2026-05-09 01:50 63.85223 -18.04071 33121 ft 486 kts 99°
2026-05-09 01:50 63.84310 -17.96712 33474 ft 483 kts 99°
2026-05-09 01:51 63.83399 -17.89395 33780 ft 482 kts 99°
2026-05-09 01:51 63.82486 -17.82097 34004 ft 482 kts 99°
2026-05-09 01:51 63.81568 -17.74784 34219 ft 483 kts 99°
2026-05-09 01:51 63.80644 -17.67470 34418 ft 483 kts 100°
2026-05-09 01:52 63.79719 -17.60176 34607 ft 483 kts 100°
2026-05-09 01:52 63.78788 -17.52878 34804 ft 482 kts 100°
2026-05-09 01:52 63.77868 -17.45694 34988 ft 482 kts 100°
2026-05-09 01:52 63.76933 -17.38424 35177 ft 482 kts 101°
2026-05-09 01:53 63.75994 -17.31161 35355 ft 481 kts 101°
2026-05-09 01:53 63.75052 -17.23911 35608 ft 480 kts 101°
2026-05-09 01:53 63.74110 -17.16689 35815 ft 479 kts 101°
2026-05-09 01:53 63.73167 -17.09491 35968 ft 479 kts 101°
2026-05-09 01:54 63.72219 -17.02284 36107 ft 479 kts 101°
2026-05-09 01:54 63.71268 -16.95083 36259 ft 479 kts 101°
2026-05-09 01:54 63.70314 -16.87902 36396 ft 478 kts 102°
2026-05-09 01:54 63.69356 -16.80715 36547 ft 478 kts 102°
2026-05-09 01:55 63.68408 -16.73637 36685 ft 478 kts 102°
2026-05-09 01:55 63.67443 -16.66462 36815 ft 478 kts 102°
2026-05-09 01:55 63.66476 -16.59306 36950 ft 478 kts 102°
2026-05-09 01:55 63.65504 -16.52144 37068 ft 478 kts 102°
2026-05-09 01:56 63.64529 -16.44991 37214 ft 478 kts 102°
2026-05-09 01:56 63.63552 -16.37850 37270 ft 479 kts 103°
2026-05-09 01:56 63.61579 -16.23531 37273 ft 479 kts 103°
2026-05-09 01:57 63.59611 -16.09369 37271 ft 478 kts 103°
2026-05-09 01:57 63.57613 -15.95113 37271 ft 478 kts 103°
2026-05-09 01:58 63.55603 -15.80889 37271 ft 478 kts 103°
2026-05-09 01:58 63.53591 -15.66772 37271 ft 478 kts 103°
2026-05-09 01:59 63.51553 -15.52584 37312 ft 479 kts 104°
2026-05-09 01:59 63.49498 -15.38402 37270 ft 478 kts 104°
2026-05-09 02:00 63.47430 -15.24247 37271 ft 479 kts 104°
2026-05-09 02:00 63.45359 -15.10190 37276 ft 479 kts 104°
2026-05-09 02:01 63.43262 -14.96064 37273 ft 479 kts 104°
2026-05-09 02:01 63.41151 -14.81961 37270 ft 479 kts 104°
2026-05-09 02:02 63.39024 -14.67867 37276 ft 479 kts 104°
2026-05-09 02:02 63.36899 -14.53897 37272 ft 480 kts 105°
2026-05-09 02:03 63.34740 -14.39812 37270 ft 480 kts 105°
2026-05-09 02:03 63.32567 -14.25750 37268 ft 480 kts 105°
2026-05-09 02:04 63.30384 -14.11736 37270 ft 479 kts 105°
2026-05-09 02:04 63.28205 -13.97851 37271 ft 479 kts 105°
2026-05-09 02:05 63.25998 -13.83901 37270 ft 479 kts 105°
2026-05-09 02:05 63.23776 -13.69958 37274 ft 478 kts 106°
2026-05-09 02:06 63.21551 -13.56110 37273 ft 476 kts 106°
2026-05-09 02:07 63.18209 -13.35497 37272 ft 476 kts 107°
2026-05-09 02:07 63.15956 -13.21728 37270 ft 476 kts 107°
2026-05-09 02:08 63.13689 -13.07979 37258 ft 476 kts 107°
2026-05-09 02:08 63.11406 -12.94234 37268 ft 476 kts 107°
2026-05-09 02:09 63.09127 -12.80616 37271 ft 476 kts 108°
2026-05-09 02:09 63.06817 -12.66909 37262 ft 476 kts 108°
2026-05-09 02:10 63.04495 -12.53236 37265 ft 476 kts 108°
2026-05-09 02:10 63.02174 -12.39666 37263 ft 476 kts 108°
2026-05-09 02:11 62.99825 -12.26030 37260 ft 477 kts 108°
2026-05-09 02:11 62.97463 -12.12416 37260 ft 476 kts 108°
2026-05-09 02:12 62.95087 -11.98816 37253 ft 476 kts 109°
2026-05-09 02:12 62.92720 -11.85372 37246 ft 475 kts 109°
2026-05-09 02:13 62.90328 -11.71873 37248 ft 475 kts 109°
2026-05-09 02:13 62.87921 -11.58388 37249 ft 475 kts 109°
2026-05-09 02:14 62.85911 -11.47192 37253 ft 475 kts 109°
2026-05-09 02:14 62.83480 -11.33744 37244 ft 475 kts 109°
2026-05-09 02:15 62.80635 -11.18122 37257 ft 476 kts 110°
2026-05-09 02:15 62.78168 -11.04676 37235 ft 478 kts 110°
2026-05-09 02:16 62.75686 -10.91241 37239 ft 477 kts 110°
2026-05-09 02:16 62.73612 -10.80084 37245 ft 477 kts 110°
2026-05-09 02:17 62.70705 -10.64556 36752 ft 474 kts 110°
2026-05-09 02:17 62.69456 -10.57923 36281 ft 472 kts 110°
2026-05-09 02:17 62.68212 -10.51335 35873 ft 469 kts 110°
2026-05-09 02:17 62.66975 -10.44811 35505 ft 464 kts 110°
2026-05-09 02:18 62.66159 -10.40517 35266 ft 462 kts 110°
2026-05-09 02:18 62.64934 -10.34089 34857 ft 459 kts 110°
2026-05-09 02:18 62.63295 -10.25511 34206 ft 459 kts 110°
2026-05-09 02:18 62.62484 -10.21284 33961 ft 455 kts 111°
2026-05-09 02:19 62.60882 -10.12965 33508 ft 447 kts 110°
2026-05-09 02:19 62.59681 -10.06750 33015 ft 445 kts 110°
2026-05-09 02:19 62.58872 -10.02572 32694 ft 444 kts 110°
2026-05-09 02:19 62.57293 -9.94442 32199 ft 438 kts 110°
2026-05-09 02:20 62.56112 -9.88385 31850 ft 434 kts 109°
2026-05-09 02:20 62.55335 -9.84409 31574 ft 432 kts 110°
2026-05-09 02:20 62.54167 -9.78448 31089 ft 428 kts 109°
2026-05-09 02:20 62.53008 -9.72547 30517 ft 424 kts 109°
2026-05-09 02:21 62.51852 -9.66681 29653 ft 425 kts 109°
2026-05-09 02:21 62.50680 -9.60731 28450 ft 433 kts 110°
2026-05-09 02:21 62.49485 -9.54689 27245 ft 441 kts 110°
2026-05-09 02:21 62.48274 -9.48590 25929 ft 452 kts 111°
2026-05-09 02:22 62.47024 -9.42322 24740 ft 458 kts 111°
2026-05-09 02:22 62.45750 -9.35954 23543 ft 463 kts 111°
2026-05-09 02:22 62.44459 -9.29523 21916 ft 472 kts 112°
2026-05-09 02:22 62.43148 -9.23009 20599 ft 474 kts 112°
2026-05-09 02:23 62.41406 -9.14396 19237 ft 470 kts 113°
2026-05-09 02:23 62.40537 -9.10109 19236 ft 452 kts 113°
2026-05-09 02:23 62.39315 -9.04091 19080 ft 428 kts 113°
2026-05-09 02:23 62.38140 -8.98331 18747 ft 412 kts 113°
2026-05-09 02:24 62.37021 -8.92861 18456 ft 397 kts 113°
2026-05-09 02:24 62.35930 -8.87538 18192 ft 380 kts 113°
2026-05-09 02:24 62.34884 -8.82448 17949 ft 364 kts 113°
2026-05-09 02:24 62.33871 -8.77531 17538 ft 355 kts 114°
2026-05-09 02:25 62.32883 -8.72745 17135 ft 347 kts 114°
2026-05-09 02:25 62.31902 -8.68000 16518 ft 346 kts 114°
2026-05-09 02:25 62.30936 -8.63341 16084 ft 340 kts 114°
2026-05-09 02:25 62.29983 -8.58752 15724 ft 331 kts 114°
2026-05-09 02:26 62.29042 -8.54233 15043 ft 335 kts 114°
2026-05-09 02:26 62.28101 -8.49724 14433 ft 336 kts 114°
2026-05-09 02:26 62.27143 -8.45140 13812 ft 338 kts 114°
2026-05-09 02:26 62.26187 -8.40580 13363 ft 331 kts 114°
2026-05-09 02:27 62.25256 -8.36151 13050 ft 320 kts 114°
2026-05-09 02:27 62.24351 -8.31856 12552 ft 316 kts 113°
2026-05-09 02:27 62.23437 -8.27519 11913 ft 319 kts 113°
2026-05-09 02:27 62.22517 -8.23165 11245 ft 323 kts 113°
2026-05-09 02:28 62.21598 -8.18828 10875 ft 315 kts 113°
2026-05-09 02:28 62.20708 -8.14634 10415 ft 311 kts 113°
2026-05-09 02:28 62.19819 -8.10458 10186 ft 305 kts 113°
2026-05-09 02:28 62.18931 -8.06289 10166 ft 309 kts 114°
2026-05-09 02:29 62.18036 -8.02095 10155 ft 311 kts 113°
2026-05-09 02:29 62.17126 -7.97840 10175 ft 316 kts 113°
2026-05-09 02:29 62.16215 -7.93594 10039 ft 313 kts 113°
2026-05-09 02:29 62.15310 -7.89385 9726 ft 307 kts 114°
2026-05-09 02:30 62.14430 -7.85297 9260 ft 308 kts 113°
2026-05-09 02:30 62.13525 -7.81109 8711 ft 310 kts 114°
2026-05-09 02:30 62.12589 -7.76935 8211 ft 312 kts 114°
2026-05-09 02:30 62.11621 -7.72772 7819 ft 311 kts 117°
2026-05-09 02:31 62.10566 -7.68787 7470 ft 308 kts 121°
2026-05-09 02:31 62.09367 -7.65034 7218 ft 301 kts 127°
2026-05-09 02:31 62.08061 -7.61590 6895 ft 298 kts 131°
2026-05-09 02:31 62.06668 -7.58256 6356 ft 304 kts 133°
2026-05-09 02:32 62.05261 -7.54952 6147 ft 296 kts 133°
2026-05-09 02:32 62.03915 -7.51788 6127 ft 281 kts 133°
2026-05-09 02:32 62.02638 -7.48781 6099 ft 277 kts 133°
2026-05-09 02:32 62.01337 -7.45714 6106 ft 281 kts 133°
2026-05-09 02:33 62.00033 -7.42643 6222 ft 278 kts 133°
2026-05-09 02:33 61.98895 -7.39310 6060 ft 282 kts 115°
2026-05-09 02:33 61.98311 -7.35301 5355 ft 289 kts 96°
2026-05-09 02:33 61.98059 -7.31007 4519 ft 297 kts 91°
2026-05-09 02:34 61.97884 -7.26567 3663 ft 305 kts 90°
2026-05-09 02:34 61.97722 -7.22079 3150 ft 301 kts 90°
2026-05-09 02:34 61.97563 -7.17754 2997 ft 284 kts 90°
2026-05-09 02:34 61.97523 -7.13775 2883 ft 265 kts 83°
2026-05-09 02:35 61.97610 -7.09876 2481 ft 260 kts 80°
2026-05-09 02:35 61.97721 -7.06195 2305 ft 241 kts 78°
2026-05-09 02:35 61.97835 -7.02721 1999 ft 231 kts 79°
2026-05-09 02:35 61.98335 -6.99774 1724 ft 196 kts 37°
2026-05-09 02:36 61.99320 -6.98729 1436 ft 143 kts 348°
2026-05-09 02:36 62.00018 -6.99765 1042 ft 125 kts 291°
2026-05-09 02:36 62.00219 -7.01552 990 ft 124 kts 289°
2026-05-09 02:36 62.00455 -7.03267 996 ft 118 kts 292°
2026-05-09 02:37 62.00732 -7.04887 993 ft 117 kts 295°
2026-05-09 02:37 62.01069 -7.06441 992 ft 116 kts 298°
2026-05-09 02:37 62.01451 -7.07982 993 ft 119 kts 300°
2026-05-09 02:37 62.01839 -7.09526 1037 ft 120 kts 300°
2026-05-09 02:38 62.02229 -7.11101 1189 ft 117 kts 300°
2026-05-09 02:38 62.02606 -7.12626 1195 ft 117 kts 300°
2026-05-09 02:38 62.02990 -7.14167 1195 ft 119 kts 300°
2026-05-09 02:38 62.03372 -7.15709 1188 ft 120 kts 300°
2026-05-09 02:39 62.03751 -7.17226 1198 ft 114 kts 300°
2026-05-09 02:39 62.04132 -7.18748 1202 ft 121 kts 300°
2026-05-09 02:39 62.04536 -7.20375 1017 ft 126 kts 299°
2026-05-09 02:39 62.04969 -7.22111 811 ft 152 kts 298°
2026-05-09 02:40 62.05509 -7.24443 446 ft 192 kts 297°
2026-05-09 02:40 62.06146 -7.26908 300 ft 180 kts 293°
2026-05-09 02:40 62.06678 -7.29069 504 ft 148 kts 298°
2026-05-09 02:40 62.07055 -7.30957 1328 ft 134 kts 292°
2026-05-09 02:41 62.06971 -7.32797 2240 ft 119 kts 252°
2026-05-09 02:41 62.06132 -7.33655 2135 ft 179 kts 194°
2026-05-09 02:41 62.04712 -7.33101 1863 ft 241 kts 156°
2026-05-09 02:41 62.03338 -7.30948 2466 ft 234 kts 144°
2026-05-09 02:42 62.02147 -7.28916 3662 ft 208 kts 144°
2026-05-09 02:42 62.01069 -7.27062 4608 ft 191 kts 144°
2026-05-09 02:42 62.00064 -7.25319 5366 ft 182 kts 144°
2026-05-09 02:42 61.99100 -7.23643 6047 ft 176 kts 144°
2026-05-09 02:43 61.98169 -7.21918 6529 ft 188 kts 131°
2026-05-09 02:43 61.97414 -7.19456 6575 ft 212 kts 121°
2026-05-09 02:43 61.96632 -7.16731 6861 ft 214 kts 121°
2026-05-09 02:43 61.95859 -7.14035 7373 ft 214 kts 121°
2026-05-09 02:44 61.95060 -7.11347 7771 ft 215 kts 123°
2026-05-09 02:44 61.94533 -7.08376 7284 ft 223 kts 85°
2026-05-09 02:44 61.94835 -7.05010 6402 ft 243 kts 65°
2026-05-09 02:44 61.95324 -7.01476 5808 ft 256 kts 70°
2026-05-09 02:45 61.95728 -6.97720 5216 ft 267 kts 73°
2026-05-09 02:45 61.96203 -6.93840 4548 ft 271 kts 57°
2026-05-09 02:45 61.97480 -6.91338 3699 ft 254 kts
2026-05-09 02:45 61.99062 -6.92322 2873 ft 241 kts 319°